Find Starlink 3517

NORAD ID: 51735 Int'l Des: 2022-016 Owner: SPXS Country: US Constellation: starlink operational
LEOCIRCULAR

リアルタイム位置

3D地球を読み込み中...

Starlink 3517について

説明を読み込み中...

次回通過

Passes for default location (London). Set your location on the main map for personalized predictions.

高度履歴

Loading altitude history...

軌道要素

1 51735U 22016X 26125.22850871 .00000788 00000-0 67613-4 0 9991
2 51735 53.2173 65.3085 0001478 95.2725 264.8436 15.08839235232106
Epoch: May 5, 2026 • Age: 17 hours

現在のステータス

高度 551.9 km
速度 7.59 km/s
衛星直下点 -35.49°S, 175.27°W
打ち上げ日 Feb 21, 2022
運用期間 4.1 years
タイプ internet

技術仕様

分類 Payload
質量 297.00 kg
乾燥質量 275.00 kg
総質量 297.00 kg
長さ 0.20 m
直径 2.80 m
スパン 9.00 m
形状 Box + pan
製造者 SPXS
バスタイプ Starlink
フェーズステータス In Orbit
所有者/国 SPXS/US

Most Searched